Location: Braslou
(47.0002°N, 0.3923°E)
Time: 19:30:51
(UTC+00:00)

Daily predictions for brighter satellites

Satellite Brightness Start Highest point End
(mag) Time Altitude Azimuth Time Altitude Azimuth Time Altitude Azimuth
USA 276 1.4 16:38:18 10° WSW 16:40:40 78° NNW 16:43:08 10° ENE
Cosmos 1818 4.4 16:36:18 10° S 16:41:09 34° ESE 16:46:02 10° NE
SMAP 3.6 16:37:02 10° SE 16:41:20 38° ENE 16:45:39 10° N
Cosmos 2297 Rocket 4.0 16:36:54 10° WSW 16:41:31 25° NW 16:46:10 10° N
APEX 3.6 16:39:41 10° S 16:42:15 26° ESE 16:44:37 10° NE
Cosmos 1544 3.3 16:39:46 10° NNW 16:43:00 64° W 16:46:12 10° S
Cosmos 2142 Rocket 4.5 16:37:53 10° N 16:44:03 81° E 16:50:13 10° S
SJ-7 4.5 16:40:50 10° SSE 16:44:43 53° ENE 16:48:41 10° N
RESURS DK-1 4.1 16:42:44 10° N 16:45:03 14° NE 16:47:21 10° ENE
Cosmos 1140 Rocket 3.6 16:41:45 10° NNW 16:46:50 53° ENE 16:51:52 10° SE
Cosmos 2279 Rocket 4.1 16:41:46 10° N 16:48:03 86° W 16:54:15 10° S
Cosmos 2219 4.0 16:45:36 10° SW 16:51:01 49° WNW 16:56:30 10° NNE
ATLAS CENTAUR R/B 2.6 16:51:15 10° NW 16:55:16 87° NE 17:03:09 10° SE
Cosmos 1812 3.2 16:52:42 10° SSE 16:56:06 37° E 16:59:31 10° NNE
SL-08 RB Rocket 4.1 16:53:46 10° S 16:58:12 67° WSW 17:02:43 10° NNW
Helios 1B rocket 2.4 16:54:36 10° SSE 16:58:33 82° W 17:02:31 10° NNW
YAOGAN 11 4.2 16:54:39 10° NNE 16:59:12 63° ESE 17:03:41 10° S
Cosmos 1833 Rocket 4.5 16:57:32 10° N 16:59:38 12° NNE 17:01:43 10° NE
PSLV R/B 4.5 16:55:35 10° S 16:59:45 54° W 17:03:59 10° NNW
CZ-2D R/B 3.2 16:56:14 10° SSE 16:59:54 84° WSW 17:03:35 10° NNW
CZ-4B R/B 3.9 16:58:16 10° SE 17:01:41 42° ENE 17:05:11 10° N
Cosmos 1076 Rocket 4.2 16:58:48 10° NNW 17:03:07 60° W 17:07:23 10° S
AQUARIUS 4.4 16:59:03 10° SE 17:03:18 46° ENE 17:07:35 10° N
SJ-11-01 4.5 16:59:05 10° S 17:03:44 77° WSW 17:08:24 10° NNW
Cosmos 2082 4.2 16:59:03 10° SW 17:04:35 59° WNW 17:10:10 10° NNE
Nadezhda 4 Rocket 4.0 17:01:34 10° S 17:07:35 63° E 17:13:38 10° NNE
Cosmos 1092 Rocket 4.5 17:04:25 10° SSE 17:09:55 36° E 17:15:26 10° NNE
Cosmos 1666 2.9 17:06:27 10° NNW 17:09:58 65° W 17:13:28 10° S
CZ-2C R/B 2.7 17:08:26 10° S 17:12:00 80° WSW 17:15:38 10° NNW
Helios 1A 3.9 17:08:38 10° NE 17:12:13 27° E 17:15:47 10° SSE
SAR-Lupe-2 4.1 17:08:55 10° S 17:12:28 64° WSW 17:16:03 10° NNW
CZ-4B R/B 3.8 17:11:09 10° SE 17:15:50 40° ENE 17:20:25 10° N
ISS -0.7 17:15:35 10° W 17:17:50 17° SW 17:20:04 10° S
Cosmos 2344 3.6 17:13:16 10° SSW 17:20:48 63° ESE 17:27:33 12° NE
DMSP B5D2-2 4.1 17:18:30 10° NNE 17:23:44 86° WNW 17:28:58 10° SSW
CORIOLIS 4.2 17:18:29 10° SSE 17:23:50 90° E 17:29:16 10° NNW
ATLAS 2AS CENTAUR R/B 2.9 17:17:39 10° NW 17:24:23 49° NE 17:30:47 10° ESE
Cosmos 1844 Rocket 3.1 17:19:39 10° S 17:24:50 41° ESE 17:29:13 14° NE
Lacrosse 5 2.1 17:20:34 10° SSW 17:25:28 53° SE 17:28:58 19° ENE
Cosmos 2263 Rocket 3.1 17:20:19 10° SW 17:25:40 47° WNW 17:31:04 10° NNE
Meteor 1-25 Rocket 4.1 17:20:34 10° N 17:26:14 73° ENE 17:31:48 10° SSE
ERS-2 4.3 17:24:31 10° SSW 17:26:56 23° W 17:29:22 10° NW
Lacrosse 4 Rocket 2.5 17:29:45 10° NW 17:33:55 48° WSW 17:37:57 10° S
Cosmos 1812 Rocket 3.5 17:29:38 10° S 17:33:58 84° E 17:38:22 10° N
COSMOS 2455 4.0 17:30:03 10° SSE 17:34:31 22° ESE 17:36:18 19° E
Cosmos 220 Rocket 4.0 17:32:44 10° NNW 17:37:00 55° ENE 17:41:09 10° SE
Cosmos 407 Rocket 3.6 17:32:48 10° NNW 17:37:59 80° WSW 17:43:04 10° SSE
Cosmos 2227 Rocket 4.4 17:34:33 10° W 17:38:24 18° NW 17:42:16 10° N
NOAA 6 4.1 17:34:33 10° SE 17:39:30 52° ENE 17:44:28 10° N
Meteor 2-2 Rocket 4.2 17:34:02 10° S 17:39:48 78° E 17:45:43 10° NNE
Cosmos 2227 4.4 17:35:40 10° SSW 17:41:25 79° WNW 17:47:07 10° NNE
Meteor 1-31 Rocket 3.4 17:42:24 10° S 17:46:02 55° W 17:49:42 10° NNW
Meteor 1-26 Rocket 4.5 17:41:18 10° SSE 17:46:35 45° E 17:52:02 10° NNE
Cosmos 1627 Rocket 4.5 17:41:56 10° S 17:48:09 68° E 17:54:30 10° NNE
Meteor 1-5 Rocket 4.3 17:44:05 10° N 17:49:45 59° ENE 17:55:33 10° SSE
Cosmos-2242 3.9 17:46:21 10° SSW 17:50:34 51° WNW 17:54:48 10° N
Cosmos 1933 3.2 17:48:39 10° S 17:52:37 74° E 17:55:50 15° NNE
Cosmos 1603 4.2 17:47:40 10° NNW 17:53:17 61° WSW 17:58:48 10° S
Cosmos 1954 Rocket 3.9 17:48:28 10° NNW 17:53:41 61° ENE 17:58:50 10° SE
Cosmos 2251 Rocket 4.3 17:48:51 10° NNW 17:54:06 56° WSW 17:59:20 10° S
Cosmos 2056 Rocket 3.6 17:50:05 10° S 17:55:20 57° ESE 17:58:43 22° NE
USA 234 3.4 17:56:01 25° ENE 17:59:55 60° SE 18:06:21 10° SW
Cosmos 1271 Rocket 2.8 17:56:40 10° N 18:00:28 52° ENE 18:04:15 10° SSE
Cosmos 2221 2.5 17:57:09 10° S 18:01:16 55° E 18:02:55 32° NNE
Okean 3 Rocket 4.0 17:58:01 10° N 18:02:17 39° ENE 18:06:31 10° SE
COSMO-SKYMED 1 2.4 18:06:01 25° NNE 18:08:32 72° ESE 18:12:52 10° S
Cosmos 1782 3.3 18:07:32 10° SSW 18:11:22 57° W 18:14:45 13° N
Cosmos 1190 Rocket 4.3 18:06:53 10° NNW 18:12:11 71° WSW 18:17:25 10° SSE
SL-08 R/B 3.2 18:13:51 42° NE 18:15:11 59° ESE 18:19:46 10° S
USA 276 3.8 18:13:10 10° WNW 18:14:17 21° NW 18:14:17 21° NW
Cosmos 192 4.5 18:11:01 10° SSW 18:15:54 73° WNW 18:18:59 23° NNE
BREEZE-M DEB (TANK) 3.1 18:16:21 10° WNW 18:17:26 27° WNW 18:17:26 27° WNW
Cosmos 1371 Rocket 3.9 18:14:36 10° SSW 18:19:51 89° WNW 18:22:44 28° NNE
RESURS DK-1 2.3 18:19:19 10° NNW 18:23:27 85° WSW 18:24:43 44° SSE
Cosmos 1818 4.4 18:19:20 10° WSW 18:24:35 47° NW 18:27:31 24° NNE
Timation 2 Rocket 3.9 18:21:10 10° SSW 18:27:08 78° WNW 18:30:37 27° NNE
S3M 4.1 18:22:56 10° N 18:28:52 48° ENE 18:29:21 47° E
Cosmos 1553 Rocket 3.9 18:23:26 10° N 18:29:47 83° E 18:35:58 10° S
CZ-4B DEB 4.2 18:27:39 28° SE 18:30:27 59° ENE 18:35:55 10° N
SL-4 R/B 4.0 18:28:24 10° SSW 18:29:06 14° S 18:29:06 14° S
JB-3 4.3 18:32:45 76° WSW 18:32:45 76° WSW 18:36:20 10° SSW
Cosmos 1420 Rocket 4.3 18:28:07 10° SSW 18:33:21 67° WNW 18:36:08 28° N
Radarsat Rocket 4.4 18:29:17 10° S 18:35:01 62° WSW 18:41:08 10° NNW
YAOGAN 1 4.1 18:38:44 24° N 18:38:44 24° N 18:40:32 10° N
Cosmos 1766 Rocket 4.1 18:32:54 10° NNW 18:37:11 57° W 18:41:24 10° S
EO 1 Delta rocket 4.3 18:33:46 10° S 18:40:18 86° W 18:45:32 10° N
SME Rocket 4.3 18:35:38 10° SSE 18:41:30 85° ENE 18:50:47 10° NNW
Cosmos 1624 Rocket 4.4 18:37:43 10° SW 18:42:52 61° WNW 18:45:03 34° N
NOAA 15 4.4 18:37:42 10° SSE 18:43:00 84° ENE 18:48:19 10° NNW
Cosmos 1844 4.1 18:37:27 10° SW 18:43:09 61° WNW 18:45:51 31° N
Cosmos 1833 Rocket 3.5 18:39:38 10° NNW 18:43:26 36° NNE 18:43:26 36° NNE
Cosmos 2266 Rocket 4.5 18:39:28 10° SSE 18:43:31 40° SE 18:43:31 40° SE
ADEOS 4.1 18:46:58 10° S 18:52:05 57° W 18:57:15 10° NNW
Lacrosse 5 2.7 19:03:45 10° W 19:08:11 43° NW 19:08:11 43° NW
Cosmos 1844 Rocket 4.0 19:03:41 10° WSW 19:08:47 36° NW 19:10:54 27° N
ATLAS 2AS CENTAUR R/B 3.5 19:08:50 10° NW 19:15:16 45° WSW 19:19:51 18° S
COSMOS 2455 3.0 19:13:51 10° SW 19:19:29 70° W 19:19:29 70° W
Cosmos 2082 Rocket 4.4 19:22:00 10° NNW 19:22:46 14° N 19:22:46 14° N
Cosmos 2344 4.5 19:28:56 10° W 19:35:39 37° NNW 19:37:35 33° N
USA 234 3.7 19:43:22 56° NW 19:43:22 56° NW 19:49:17 10° W
